Regional Weather Roundup
Issued by NWS Newport/Morehead, NC

Current Version | Previous Version | Graphics & Text | Print | Product List | Glossary Off
Versions: 1 2 3 4 5 6 7 8 9 10 11 12 13 14 15 16 17 18 19 20 21 22 23 24 25 26 27 28 29 30 31 32 33 34 35 36 37 38 39 40 41 42 43 44 45 46 47 48 49 50

766
ASUS42 KMHX 241813
RWRMHX
WEATHER ROUNDUP FOR EASTERN NORTH CAROLINA
NATIONAL WEATHER SERVICE NEWPORT/MOREHEAD CITY NC
200 PM EDT MON APR 24 2017

NOTE: "FAIR" INDICATES FEW OR NO CLOUDS BELOW 12,000 FEET
WITH NO SIGNIFICANT WEATHER AND/OR OBSTRUCTIONS TO VISIBILITY

NCZ015>017-031-032-045>047-102-103-241900-
NORTH COAST

CITY           SKY/WX    TMP DP  RH WIND       PRES   REMARKS
EDENTON        LGT RAIN  69  67  92 E7        29.84F
ELIZABETH CITY LGT RAIN  66  66 100 NE10      29.86F
KITTY HAWK     CLOUDY    66  65  95 CALM      29.86F
MANTEO         CLOUDY    69  64  83 SE10      29.86F

$$

NCZ045>047-081-094-103-104-241900-
CENTRAL COAST

CITY           SKY/WX    TMP DP  RH WIND       PRES   REMARKS
FRISCO         CLOUDY    75  65  70 SE8       29.82F HAZE

$$

NCZ095-097-098-100-101-241900-
SOUTHERN COAST

CITY           SKY/WX    TMP DP  RH WIND       PRES   REMARKS
BEAUFORT       HVY RAIN  67  66  97 SE14G26   29.78F VSB 1
CEDAR ISLAND   NOT AVBL
JACKSONVILLE   HVY RAIN  65  65 100 NE10      29.75F VSB 1
PINEY ISLAND   CLOUDY   N/A N/A N/A S14G28    29.79F HAZE
WILMINGTON     HVY RAIN  65  65 100 NE12      29.72F FOG


$$

NCZ011>013-027>030-043-044-078>080-089-090>093-098-241900-
COASTAL PLAIN

CITY           SKY/WX    TMP DP  RH WIND       PRES   REMARKS
AHOSKIE        RAIN      61  61  98 N9        29.86F
CLINTON        RAIN      63  63 100 N7        29.77F
ELIZABETHTOWN  HVY RAIN  64  64 100 E3        29.75S
GOLDSBORO      LGT RAIN  66  66 100 E7        29.76F
GREENVILLE     LGT RAIN  68  68 100 E9        29.83F
HAVELOCK       LGT RAIN  71  66  84 E14       29.78F
KENANSVILLE    HVY RAIN  66  64  94 SE3       29.77F FOG
KINSTON        RAIN      66  64  94 SE9G17    29.80F
NEW BERN       LGT RAIN  69  68  96 VRB6      29.79F
RICHLANDS      RAIN      65  64  97 NE8       29.77F FOG
ROCKY MOUNT    LGT RAIN  62  62 100 NE10G18   29.82F FOG
WASHINGTON     LGT RAIN  67  65  94 E5        29.81F
WHITEVILLE     RAIN      66  64  96 E9        29.70F

$$

AMZ130-135-150-152-154-156-158-170-250-252-270-ANZ085-086-088-633-658-670-241900-
MARINE OBSERVATIONS

STATION/POSITION TIME  TEMP    WIND        PRES    WAVE   SWELL
                       AIR SEA DIR/SP/G            HT/PER HT/PER
                 (UTC) (F)     (DEG/KT/KT) (MB)    (FT/S) (FT/S)
CHESAPEAKE LIGHT NOT AVBL
64 E VA BEACH    1750   60 54   90/ 10/ 12 1013.1    5/11   5/11
DUCK             1748   62 61   80/ 14/ 18 1010.9
2 E DUCK         1800      61                N/A     5/12   2/12
OREGON INLET     1748           80/  6/ 11   N/A
13E OREGON INLT  1748      56                N/A     6/ 7   7/ 7
HATTERAS CG      1748   71 67  130/  7/ 12 1009.6
DIAMOND BUOY     1750   76 79  130/ 21/ 25 1009.5    7/ 6   3/ 9
CAPE LOOKOUT     1800   69     130/ 18/ 20 1007.5
BEAUFORT LAB     1748   68 65  150/ 13/ 17 1007.6
30 SE NEW RVR IN NOT AVBL
30 SE NEW RVR IN 1743      71                N/A    10/ 7   2/12
27 SE WRIGHTSVLE 1708   72 72  150/ 19/ 29 1006.0
5 SE WRIGHTSVLE  1708   68 69  130/ 14/ 23 1007.0
225 S CAPE HAT   1750   67 75  100/ 25/ 29 1008.5    8/ 7   2/11
41 SE CHARLESTON 1750   70 74  150/ 12/ 16 1004.0    6/ 8   5/ 8

$$




USA.gov is the U.S. government's official web portal to all federal, state and local government web resources and services.